Regional Weather Roundup
Issued by NWS Little Rock, AR

Home | Current Version | Previous Version | Graphics & Text | Print | Product List | Glossary On
Versions: 1 2 3 4 5 6 7 8 9 10 11 12 13 14 15 16 17 18 19 20 21 22 23 24 25 26 27
000
ASUS44 KLZK 282305
RWRLZK

WEATHER ROUNDUP FOR ARKANSAS
NATIONAL WEATHER SERVICE LITTLE ROCK AR
600 PM CDT SUN AUG 28 2016

NOTE: "FAIR" INDICATES FEW OR NO CLOUDS BELOW 12,000 FEET WITH NO
SIGNIFICANT WEATHER AND/OR OBSTRUCTIONS TO VISIBILITY.

ARZ001-003-010-029-290000-
NORTHWEST ARKANSAS

CITY           SKY/WX    TMP DP  RH WIND       PRES   REMARKS
FAYETTEVILLE   SUNNY     84  69  60 E8        30.07F HX  88
FORT SMITH     PTSUNNY   84  73  69 CALM      30.02S HX  90
HARRISON       SUNNY     85  69  58 E8        30.09S HX  89
BENTONVILLE    CLOUDY    82  66  57 SE3       30.09S HX  85
ROGERS         MOSUNNY   83  70  64 SE8       30.08F HX  87
SILOAM SPGS    CLOUDY    79  64  61 E5        30.09F
HIGHFILL       PTSUNNY   83  70  64 E3        30.08F HX  87
SPRINGDALE     MOSUNNY   82  72  69 CALM      30.09F HX  87
$$

ARZ004-005-016-290000-
NORTH CENTRAL ARKANSAS

CITY           SKY/WX    TMP DP  RH WIND       PRES   REMARKS
BATESVILLE     CLOUDY    79  72  78 CALM      30.05F
FLIPPIN        SUNNY     86  68  54 CALM      30.03S HX  89
MTN HOME       SUNNY     84  68  58 SE6       30.05F HX  87
$$

ARZ040-041-290000-
WEST CENTRAL ARKANSAS

CITY           SKY/WX    TMP DP  RH WIND       PRES   REMARKS
MENA           MOSUNNY   82  77  83 CALM      30.06S HX  91
MOUNT IDA      PTSUNNY   82  76  81 CALM      30.02S HX  89
$$

ARZ009-017-025-026-028-290000-
NORTHEAST ARKANSAS

CITY           SKY/WX    TMP DP  RH WIND       PRES   REMARKS
CORNING          N/A     91  75  59 E5        30.04S HX 102
JONESBORO      MOSUNNY   89  74  60 NE7       30.02S HX  98
WALNUT RIDGE   SUNNY     88  73  62 NE6       30.02S HX  96
BLYTHEVILLE    SUNNY     90  74  59 SE3       30.03S HX  99
$$

ARZ022-023-033-042-044-290000-
CENTRAL ARKANSAS

CITY           SKY/WX    TMP DP  RH WIND       PRES   REMARKS
LITTLE ROCK    MOSUNNY   92  72  51 E9        30.01R HX  99
JACKSONVILLE   SUNNY     91  75  59 CALM      30.01R HX 102
SEARCY         SUNNY     88  76  67 NE9       30.03F HX  99
HOT SPRINGS    MOSUNNY   89  72  56 E8        30.02S HX  96
RUSSELLVILLE   SUNNY     89  71  55 E3        30.01S HX  95
$$

ARZ036-290000-
EAST ARKANSAS

CITY           SKY/WX    TMP DP  RH WIND       PRES   REMARKS
WEST MEMPHIS   SUNNY     91  73  55 NE6       30.00S HX  99
$$

ARZ050-053-066-070-073-290000-
SOUTHWEST ARKANSAS

CITY           SKY/WX    TMP DP  RH WIND       PRES   REMARKS
ARKADELPHIA    FAIR      85  77  77 SW6       30.01R HX  95
TEXARKANA      CLOUDY    78  74  87 CALM      30.01F
EL DORADO      PTSUNNY   82  75  79 CALM      30.00F HX  89
DE QUEEN       CLOUDY    77  74  90 CALM      30.00S
$$

ARZ056-057-069-290000-
SOUTHEAST ARKANSAS

CITY           SKY/WX    TMP DP  RH WIND       PRES   REMARKS
PINE BLUFF     SUNNY     92  68  45 E8        30.00S HX  96
STUTTGART      SUNNY     91  70  49 E6        30.01S HX  97
MONTICELLO     SUNNY     94  69  44 E6        29.99S HX  99

$$






USA.gov is the U.S. government's official web portal to all federal, state and local government web resources and services.